Precipitable_Water
0.41 0.31 0.28 0.24 0.26 0.25 0.24 0.26 0.26 0.26 0.26 0.26 0.26 0.25 0.23 0.21 0.21 0.28 0.28 0.32 0.37 0.31 0.38 0.41 0.39 0.38 0.38 0.41 0.49 0.64 0.65 0.66 0.69 0.75 0.83 0.86 0.93 0.98 1.01 1.03 1.05 1.10 1.15 1.29 1.35 1.40 1.44 1.48 1.54 1.60 1.63 1.64 1.68 1.70 1.74 1.73 1.74 1.77 1.76 1.79 1.78 1.87 1.93 1.93 1.90 1.91 1.91 1.87 1.90 1.93 1.94 1.91 2.03 2.06 2.10 2.12 2.14 2.15 2.16 2.13 2.14 2.20 2.27 2.32 2.30 2.31
0.35 0.27 0.25 0.25 0.24 0.24 0.23 0.25 0.27 0.26 0.27 0.25 0.24 0.22 0.22 0.21 0.21 0.23 0.23 0.31 0.37 0.31 0.39 0.37 0.34 0.33 0.36 0.39 0.48 0.61 0.59 0.58 0.65 0.73 0.79 0.85 0.90 0.94 0.96 0.99 1.01 1.10 1.23 1.29 1.31 1.37 1.41 1.44 1.49 1.54 1.56 1.58 1.53 1.60 1.66 1.66 1.70 1.73 1.75 1.74 1.78 1.86 1.89 1.90 1.87 1.88 1.89 1.88 1.88 1.84 1.83 1.87 1.92 1.97 1.97 1.97 2.05 2.10 2.14 2.12 2.09 2.14 2.22 2.24 2.29 2.29
0.30 0.26 0.29 0.24 0.23 0.21 0.22 0.25 0.26 0.26 0.26 0.26 0.23 0.22 0.21 0.22 0.20 0.25 0.30 0.29 0.36 0.29 0.32 0.35 0.29 0.31 0.35 0.43 0.49 0.53 0.54 0.59 0.68 0.73 0.81 0.87 0.87 0.90 0.96 0.98 1.01 1.06 1.12 1.23 1.28 1.33 1.36 1.40 1.44 1.48 1.50 1.53 1.56 1.57 1.60 1.65 1.68 1.71 1.72 1.73 1.77 1.84 1.86 1.88 1.90 1.87 1.83 1.86 1.89 1.87 1.87 1.87 1.87 2.00 1.99 1.97 2.04 2.12 2.11 2.11 2.15 2.16 2.18 2.20 2.24 2.30
0.25 0.26 0.27 0.23 0.22 0.20 0.21 0.23 0.24 0.25 0.26 0.25 0.22 0.21 0.20 0.21 0.17 0.17 0.36 0.31 0.31 0.29 0.28 0.30 0.28 0.31 0.34 0.43 0.42 0.51 0.51 0.59 0.68 0.69 0.72 0.83 0.87 0.92 0.96 0.98 0.99 1.02 1.07 1.12 1.21 1.27 1.36 1.39 1.43 1.44 1.46 1.49 1.52 1.53 1.55 1.59 1.62 1.67 1.70 1.73 1.75 1.80 1.84 1.87 1.91 1.90 1.91 1.93 1.92 1.94 1.94 1.95 1.92 1.91 2.02 1.96 1.90 2.00 2.11 2.10 2.15 2.19 2.16 2.19 2.21 2.25
0.24 0.21 0.21 0.20 0.19 0.19 0.19 0.21 0.21 0.22 0.24 0.26 0.24 0.21 0.21 0.18 0.17 0.17 0.17 0.21 0.29 0.38 0.35 0.32 0.32 0.31 0.40 0.38 0.48 0.57 0.61 0.62 0.69 0.69 0.71 0.80 0.88 0.95 0.99 1.01 1.02 1.03 1.07 1.11 1.18 1.26 1.30 1.33 1.37 1.40 1.42 1.48 1.47 1.49 1.51 1.55 1.58 1.62 1.65 1.72 1.76 1.79 1.82 1.85 1.91 1.92 1.94 1.94 1.90 1.91 1.93 1.97 1.90 1.94 1.93 1.90 1.86 1.91 2.01 2.08 2.08 2.08 2.18 2.21 2.21 2.23
0.19 0.21 0.20 0.17 0.18 0.19 0.19 0.19 0.20 0.21 0.21 0.23 0.22 0.22 0.19 0.18 0.18 0.17 0.18 0.18 0.20 0.43 0.35 0.28 0.21 0.25 0.35 0.40 0.39 0.54 0.61 0.64 0.66 0.66 0.68 0.79 0.85 0.88 0.89 0.93 1.02 1.05 1.09 1.10 1.11 1.17 1.24 1.28 1.33 1.39 1.42 1.42 1.44 1.48 1.53 1.59 1.61 1.64 1.67 1.71 1.76 1.81 1.83 1.84 1.87 1.94 1.92 1.89 1.82 1.77 1.70 1.67 1.68 1.68 1.76 1.72 1.72 1.77 1.80 1.90 2.03 2.11 2.18 2.22 2.25 2.23
0.17 0.19 0.17 0.17 0.18 0.18 0.18 0.19 0.21 0.20 0.21 0.20 0.22 0.21 0.19 0.20 0.19 0.17 0.16 0.17 0.17 0.20 0.34 0.27 0.19 0.22 0.32 0.36 0.48 0.48 0.53 0.60 0.67 0.69 0.74 0.81 0.82 0.87 0.86 0.94 0.97 1.00 1.03 1.06 1.08 1.11 1.14 1.22 1.26 1.32 1.36 1.40 1.42 1.49 1.58 1.61 1.62 1.66 1.69 1.72 1.77 1.79 1.81 1.85 1.86 1.94 1.87 1.88 1.84 1.76 1.71 1.72 1.64 1.61 1.75 1.84 1.84 1.86 1.89 1.98 2.03 2.10 2.14 2.20 2.21 2.24
0.15 0.18 0.17 0.18 0.18 0.17 0.16 0.15 0.20 0.20 0.19 0.19 0.21 0.21 0.20 0.19 0.18 0.16 0.16 0.16 0.17 0.24 0.26 0.23 0.25 0.23 0.25 0.36 0.38 0.45 0.53 0.52 0.62 0.71 0.82 0.87 0.84 0.81 0.88 0.91 0.94 0.96 0.97 1.01 1.03 1.06 1.10 1.15 1.19 1.24 1.34 1.39 1.43 1.52 1.57 1.59 1.63 1.63 1.67 1.71 1.75 1.80 1.81 1.82 1.87 1.88 1.94 1.81 1.89 1.81 1.72 1.72 1.73 1.68 1.76 1.83 1.86 1.88 1.91 1.92 1.92 2.00 2.09 2.14 2.22 2.17
0.17 0.17 0.18 0.18 0.18 0.17 0.17 0.19 0.22 0.20 0.17 0.19 0.21 0.21 0.21 0.20 0.18 0.16 0.16 0.16 0.19 0.17 0.17 0.30 0.27 0.21 0.25 0.39 0.41 0.43 0.52 0.47 0.49 0.70 0.60 0.90 0.85 0.84 0.87 0.87 0.87 0.91 0.96 0.99 1.00 1.03 1.07 1.10 1.16 1.24 1.31 1.40 1.46 1.52 1.55 1.60 1.64 1.68 1.71 1.73 1.77 1.79 1.81 1.84 1.89 1.91 1.89 1.90 1.89 1.97 1.90 1.84 1.83 1.84 1.78 1.85 1.89 1.87 1.93 1.87 1.96 1.95 2.02 2.12 2.16 2.18
0.22 0.20 0.23 0.21 0.20 0.18 0.20 0.22 0.21 0.20 0.18 0.20 0.20 0.20 0.20 0.19 0.18 0.17 0.16 0.17 0.19 0.18 0.18 0.22 0.26 0.18 0.22 0.32 0.37 0.45 0.53 0.45 0.53 0.60 0.70 0.86 0.73 0.75 0.79 0.82 0.84 0.89 0.95 0.99 1.03 1.08 1.10 1.14 1.19 1.26 1.34 1.38 1.43 1.52 1.60 1.66 1.68 1.69 1.70 1.70 1.72 1.75 1.81 1.89 1.94 1.99 1.95 1.95 1.93 1.84 1.80 1.83 1.80 1.90 1.76 1.84 1.84 1.83 1.91 1.83 1.87 1.91 1.92 2.01 2.10 2.13
0.24 0.24 0.25 0.22 0.20 0.21 0.22 0.22 0.22 0.22 0.20 0.21 0.21 0.19 0.18 0.18 0.17 0.18 0.18 0.20 0.19 0.15 0.21 0.25 0.21 0.21 0.20 0.30 0.38 0.39 0.46 0.55 0.61 0.69 0.69 0.77 0.71 0.75 0.80 0.84 0.85 0.89 0.94 1.00 1.04 1.10 1.13 1.19 1.20 1.25 1.24 1.33 1.41 1.49 1.54 1.59 1.63 1.66 1.66 1.67 1.65 1.73 1.82 1.91 2.01 2.02 2.15 2.02 2.05 1.99 1.99 2.00 1.84 1.88 1.91 1.79 1.84 1.82 1.89 1.83 1.78 1.91 1.94 1.99 2.13 2.14
0.20 0.22 0.21 0.26 0.29 0.29 0.28 0.24 0.25 0.24 0.22 0.20 0.18 0.16 0.16 0.15 0.17 0.17 0.20 0.22 0.16 0.18 0.30 0.27 0.23 0.27 0.20 0.29 0.38 0.44 0.54 0.53 0.55 0.59 0.67 0.66 0.68 0.72 0.79 0.83 0.86 0.91 0.97 1.02 1.06 1.07 1.12 1.14 1.19 1.22 1.22 1.28 1.36 1.42 1.47 1.53 1.58 1.58 1.60 1.62 1.63 1.73 1.81 1.82 1.87 1.93 1.94 1.94 2.06 2.09 2.12 2.01 1.99 1.95 1.91 1.80 1.85 1.87 1.87 1.88 1.81 1.95 1.91 1.95 2.03 2.13
0.16 0.18 0.24 0.30 0.37 0.29 0.28 0.25 0.24 0.24 0.22 0.19 0.17 0.15 0.12 0.15 0.18 0.16 0.21 0.19 0.22 0.22 0.30 0.27 0.28 0.27 0.28 0.31 0.46 0.45 0.50 0.54 0.56 0.60 0.62 0.65 0.68 0.74 0.80 0.83 0.87 0.92 0.97 1.01 1.05 1.08 1.13 1.15 1.17 1.21 1.24 1.28 1.33 1.38 1.44 1.46 1.49 1.51 1.55 1.62 1.64 1.69 1.76 1.80 1.89 1.87 1.87 1.85 1.79 1.91 1.99 2.03 1.95 1.92 1.88 1.91 1.90 1.91 1.97 1.85 1.87 1.87 1.86 1.91 1.97 1.96
0.22 0.26 0.25 0.29 0.30 0.33 0.29 0.22 0.21 0.19 0.20 0.18 0.15 0.15 0.14 0.13 0.14 0.13 0.16 0.19 0.18 0.23 0.26 0.27 0.31 0.24 0.31 0.37 0.44 0.46 0.51 0.53 0.57 0.64 0.65 0.67 0.71 0.74 0.77 0.86 0.90 0.94 0.97 1.00 1.03 1.07 1.11 1.16 1.19 1.20 1.19 1.22 1.30 1.35 1.40 1.43 1.42 1.47 1.55 1.62 1.60 1.60 1.62 1.64 1.71 1.79 1.80 1.81 1.76 1.73 1.78 1.90 1.83 1.69 1.75 1.90 1.93 1.92 1.97 1.99 1.88 1.92 1.96 1.94 1.94 1.99
0.20 0.19 0.27 0.29 0.26 0.33 0.28 0.24 0.24 0.20 0.21 0.19 0.17 0.16 0.16 0.16 0.15 0.15 0.18 0.17 0.20 0.20 0.26 0.32 0.23 0.32 0.28 0.34 0.40 0.48 0.53 0.55 0.61 0.67 0.68 0.72 0.75 0.75 0.83 0.85 0.90 0.93 0.99 1.04 1.05 1.08 1.12 1.16 1.17 1.11 1.14 1.23 1.27 1.31 1.35 1.36 1.38 1.45 1.49 1.49 1.47 1.47 1.54 1.64 1.70 1.75 1.71 1.68 1.73 1.82 1.86 1.83 1.79 1.81 1.85 1.87 1.92 1.87 1.85 2.03 2.04 1.89 1.98 1.93 2.05 2.04
0.23 0.25 0.36 0.34 0.30 0.29 0.26 0.26 0.24 0.21 0.19 0.19 0.19 0.19 0.16 0.17 0.22 0.16 0.23 0.20 0.20 0.21 0.23 0.30 0.26 0.35 0.31 0.44 0.48 0.50 0.54 0.63 0.67 0.66 0.71 0.70 0.74 0.82 0.82 0.81 0.87 0.93 0.98 1.05 1.08 1.10 1.14 1.17 1.15 1.16 1.18 1.23 1.29 1.29 1.33 1.31 1.36 1.40 1.40 1.41 1.45 1.49 1.59 1.66 1.69 1.72 1.69 1.74 1.81 1.86 1.85 1.84 1.84 1.89 1.90 1.89 1.88 1.87 1.92 1.97 1.84 1.97 1.97 1.89 1.93 2.01
0.21 0.23 0.33 0.36 0.38 0.34 0.30 0.27 0.25 0.23 0.18 0.21 0.20 0.18 0.21 0.25 0.21 0.21 0.21 0.21 0.20 0.19 0.20 0.32 0.28 0.31 0.38 0.42 0.49 0.56 0.59 0.64 0.70 0.73 0.75 0.73 0.76 0.82 0.79 0.82 0.87 0.95 0.98 1.03 1.08 1.10 1.14 1.17 1.17 1.20 1.23 1.25 1.26 1.29 1.30 1.31 1.36 1.37 1.39 1.42 1.49 1.55 1.62 1.62 1.63 1.60 1.64 1.70 1.73 1.78 1.79 1.77 1.78 1.84 1.84 1.83 1.86 1.85 1.91 1.90 1.87 1.87 2.00 1.94 1.94 2.00
0.25 0.28 0.35 0.36 0.34 0.37 0.40 0.37 0.32 0.27 0.25 0.23 0.21 0.22 0.26 0.26 0.26 0.23 0.20 0.29 0.22 0.19 0.28 0.30 0.24 0.27 0.30 0.37 0.52 0.54 0.62 0.69 0.74 0.69 0.71 0.71 0.87 0.82 0.79 0.83 0.90 0.94 1.01 1.07 1.11 1.16 1.17 1.17 1.18 1.22 1.25 1.26 1.26 1.27 1.30 1.33 1.39 1.39 1.42 1.47 1.52 1.55 1.55 1.59 1.60 1.59 1.61 1.68 1.75 1.78 1.79 1.81 1.81 1.80 1.83 1.84 1.83 1.84 1.78 1.80 1.87 1.97 1.96 1.91 1.95 1.99
0.31 0.26 0.34 0.37 0.36 0.40 0.43 0.41 0.36 0.37 0.34 0.29 0.29 0.33 0.24 0.24 0.24 0.27 0.20 0.18 0.19 0.20 0.22 0.24 0.29 0.26 0.33 0.42 0.49 0.53 0.50 0.50 0.61 0.67 0.78 0.82 0.81 0.77 0.79 0.86 0.91 0.96 0.98 1.03 1.05 1.11 1.16 1.18 1.19 1.22 1.23 1.25 1.29 1.30 1.35 1.38 1.38 1.37 1.37 1.43 1.50 1.53 1.57 1.57 1.59 1.61 1.62 1.65 1.70 1.77 1.80 1.82 1.81 1.82 1.82 1.83 1.81 1.81 1.77 1.77 1.80 1.78 1.86 1.93 1.97 1.96
0.34 0.27 0.33 0.38 0.39 0.41 0.40 0.38 0.31 0.37 0.41 0.39 0.38 0.32 0.36 0.28 0.28 0.26 0.25 0.25 0.22 0.19 0.19 0.26 0.29 0.24 0.49 0.52 0.54 0.56 0.65 0.73 0.72 0.78 0.82 0.72 0.78 0.80 0.82 0.87 0.93 0.95 0.97 1.00 1.04 1.08 1.14 1.18 1.20 1.21 1.24 1.25 1.28 1.32 1.35 1.37 1.38 1.32 1.34 1.38 1.46 1.52 1.53 1.53 1.51 1.52 1.53 1.60 1.66 1.72 1.78 1.82 1.86 1.88 1.88 1.85 1.80 1.74 1.72 1.75 1.74 1.77 1.87 1.90 1.92 1.90
0.37 0.36 0.28 0.39 0.41 0.40 0.34 0.40 0.35 0.37 0.35 0.35 0.36 0.35 0.38 0.34 0.36 0.31 0.30 0.25 0.24 0.23 0.23 0.24 0.24 0.38 0.53 0.62 0.65 0.66 0.70 0.75 0.75 0.76 0.79 0.80 0.83 0.87 0.89 0.93 0.97 0.98 0.99 1.00 1.04 1.08 1.12 1.17 1.20 1.22 1.26 1.28 1.30 1.36 1.38 1.38 1.36 1.35 1.32 1.34 1.42 1.42 1.46 1.45 1.49 1.51 1.53 1.58 1.60 1.66 1.69 1.74 1.77 1.80 1.83 1.81 1.79 1.73 1.72 1.71 1.75 1.83 1.90 1.94 1.88 1.89
0.38 0.41 0.33 0.37 0.37 0.37 0.40 0.44 0.43 0.42 0.40 0.38 0.37 0.36 0.36 0.33 0.32 0.29 0.30 0.40 0.34 0.29 0.26 0.28 0.27 0.50 0.64 0.71 0.75 0.77 0.81 0.84 0.88 0.85 0.85 0.89 0.89 0.93 0.96 0.98 1.01 1.03 1.03 1.03 1.06 1.10 1.13 1.18 1.21 1.24 1.27 1.30 1.32 1.36 1.37 1.37 1.40 1.35 1.28 1.30 1.39 1.43 1.48 1.43 1.47 1.50 1.53 1.58 1.60 1.58 1.60 1.65 1.70 1.72 1.75 1.76 1.78 1.74 1.70 1.66 1.73 1.82 1.89 1.86 1.91 1.90
0.50 0.46 0.40 0.36 0.39 0.40 0.43 0.45 0.48 0.47 0.46 0.43 0.42 0.39 0.39 0.39 0.37 0.32 0.28 0.34 0.39 0.35 0.35 0.34 0.29 0.50 0.75 0.83 0.85 0.87 0.88 0.92 0.96 0.96 0.92 0.96 0.97 1.01 1.04 1.06 1.09 1.11 1.12 1.10 1.11 1.15 1.17 1.19 1.22 1.23 1.25 1.29 1.36 1.40 1.41 1.39 1.38 1.38 1.34 1.31 1.32 1.35 1.42 1.50 1.47 1.51 1.56 1.57 1.60 1.63 1.64 1.64 1.63 1.66 1.67 1.65 1.61 1.56 1.60 1.66 1.73 1.84 1.85 1.87 1.88 1.92
0.53 0.44 0.40 0.40 0.43 0.44 0.45 0.47 0.48 0.47 0.44 0.42 0.49 0.47 0.44 0.39 0.39 0.36 0.36 0.38 0.31 0.39 0.34 0.35 0.32 0.59 0.80 0.88 0.89 0.90 0.93 0.96 0.99 0.99 0.99 0.99 1.02 1.03 1.06 1.09 1.12 1.15 1.20 1.22 1.21 1.21 1.23 1.23 1.28 1.31 1.32 1.36 1.41 1.44 1.44 1.42 1.39 1.39 1.41 1.37 1.35 1.34 1.42 1.46 1.49 1.51 1.53 1.59 1.62 1.66 1.62 1.54 1.55 1.60 1.61 1.56 1.53 1.46 1.51 1.61 1.74 1.83 1.86 1.86 1.88 1.87
0.39 0.51 0.41 0.38 0.38 0.40 0.41 0.44 0.43 0.47 0.45 0.41 0.40 0.48 0.44 0.45 0.43 0.43 0.40 0.42 0.32 0.40 0.39 0.32 0.29 0.53 0.79 0.94 0.89 0.89 0.91 0.89 0.90 0.97 1.01 0.98 1.02 1.03 1.05 1.08 1.12 1.16 1.21 1.25 1.26 1.29 1.29 1.26 1.23 1.23 1.30 1.40 1.49 1.52 1.54 1.50 1.47 1.47 1.44 1.43 1.43 1.40 1.45 1.48 1.51 1.51 1.57 1.60 1.62 1.63 1.49 1.39 1.44 1.53 1.56 1.54 1.52 1.47 1.51 1.56 1.62 1.77 1.84 1.87 1.86 1.88
0.43 0.52 0.42 0.35 0.33 0.32 0.33 0.36 0.39 0.41 0.44 0.44 0.44 0.46 0.44 0.42 0.41 0.39 0.36 0.43 0.35 0.45 0.38 0.33 0.42 0.61 0.80 0.86 0.83 0.85 0.85 0.84 0.91 0.96 1.00 1.03 1.04 1.03 1.04 1.06 1.09 1.12 1.15 1.19 1.23 1.25 1.26 1.30 1.33 1.34 1.35 1.37 1.40 1.47 1.50 1.54 1.59 1.61 1.59 1.57 1.56 1.53 1.56 1.56 1.57 1.56 1.57 1.63 1.65 1.61 1.49 1.44 1.39 1.41 1.39 1.42 1.44 1.47 1.50 1.53 1.57 1.63 1.73 1.84 1.86 1.90
0.50 0.48 0.46 0.45 0.41 0.38 0.40 0.45 0.47 0.44 0.43 0.39 0.48 0.44 0.44 0.44 0.43 0.38 0.39 0.35 0.33 0.41 0.39 0.46 0.46 0.54 0.63 0.70 0.72 0.78 0.82 0.81 0.84 0.93 0.98 1.00 1.06 1.07 1.05 1.06 1.07 1.09 1.12 1.15 1.17 1.21 1.24 1.24 1.26 1.29 1.33 1.41 1.47 1.50 1.51 1.57 1.65 1.68 1.62 1.61 1.62 1.61 1.61 1.65 1.65 1.63 1.59 1.62 1.61 1.52 1.42 1.30 1.25 1.41 1.41 1.35 1.35 1.44 1.50 1.54 1.57 1.59 1.65 1.77 1.82 1.87
0.51 0.45 0.48 0.45 0.45 0.45 0.46 0.46 0.46 0.45 0.41 0.42 0.40 0.42 0.48 0.43 0.43 0.36 0.32 0.33 0.47 0.36 0.30 0.60 0.52 0.52 0.61 0.67 0.69 0.75 0.79 0.83 0.87 0.92 0.97 1.02 1.04 1.06 1.07 1.08 1.08 1.08 1.11 1.13 1.16 1.17 1.18 1.22 1.26 1.28 1.31 1.37 1.42 1.49 1.53 1.55 1.59 1.64 1.65 1.63 1.65 1.67 1.66 1.66 1.66 1.67 1.66 1.64 1.66 1.53 1.41 1.31 1.32 1.42 1.49 1.48 1.44 1.45 1.48 1.52 1.55 1.55 1.58 1.65 1.72 1.78
0.49 0.43 0.50 0.46 0.45 0.45 0.46 0.44 0.45 0.43 0.43 0.45 0.45 0.43 0.43 0.50 0.43 0.35 0.38 0.49 0.38 0.30 0.29 0.57 0.57 0.49 0.58 0.63 0.70 0.76 0.81 0.82 0.87 0.92 0.97 1.02 1.04 1.06 1.08 1.07 1.06 1.07 1.09 1.09 1.11 1.17 1.22 1.23 1.23 1.26 1.30 1.35 1.40 1.42 1.46 1.53 1.59 1.60 1.59 1.61 1.60 1.64 1.67 1.70 1.69 1.67 1.66 1.67 1.59 1.59 1.54 1.43 1.44 1.53 1.59 1.56 1.54 1.53 1.48 1.43 1.46 1.49 1.51 1.52 1.57 1.66
0.45 0.42 0.45 0.45 0.43 0.42 0.41 0.42 0.42 0.40 0.45 0.43 0.43 0.46 0.44 0.41 0.43 0.40 0.41 0.42 0.35 0.37 0.41 0.45 0.47 0.47 0.55 0.62 0.70 0.78 0.84 0.86 0.90 0.97 0.97 0.96 0.95 0.97 0.97 0.98 1.01 1.04 1.06 1.08 1.11 1.14 1.18 1.25 1.29 1.27 1.29 1.31 1.33 1.37 1.42 1.45 1.51 1.57 1.54 1.52 1.55 1.54 1.57 1.58 1.60 1.63 1.64 1.62 1.64 1.66 1.73 1.67 1.59 1.62 1.66 1.62 1.54 1.52 1.49 1.44 1.41 1.43 1.48 1.52 1.56 1.60
0.41 0.39 0.42 0.42 0.39 0.39 0.39 0.38 0.38 0.37 0.43 0.39 0.49 0.43 0.41 0.41 0.39 0.42 0.37 0.38 0.37 0.43 0.47 0.47 0.46 0.46 0.62 0.72 0.72 0.82 0.87 0.89 0.89 0.90 0.94 0.98 0.98 0.98 0.98 0.98 0.99 0.99 1.03 1.07 1.09 1.12 1.14 1.18 1.29 1.35 1.31 1.29 1.32 1.34 1.37 1.43 1.48 1.51 1.55 1.56 1.55 1.53 1.56 1.55 1.49 1.52 1.57 1.59 1.72 1.74 1.69 1.67 1.68 1.69 1.71 1.70 1.64 1.56 1.51 1.47 1.45 1.43 1.43 1.46 1.49 1.52
0.40 0.37 0.42 0.39 0.34 0.33 0.36 0.33 0.32 0.38 0.40 0.35 0.42 0.43 0.38 0.34 0.34 0.47 0.45 0.53 0.46 0.47 0.53 0.54 0.50 0.55 0.70 0.81 0.81 0.83 0.83 0.83 0.84 0.88 0.93 0.99 1.03 1.05 1.03 1.01 1.02 1.02 1.03 1.06 1.07 1.08 1.07 1.07 1.15 1.26 1.32 1.26 1.28 1.30 1.33 1.38 1.44 1.46 1.45 1.55 1.59 1.60 1.61 1.58 1.53 1.48 1.47 1.50 1.55 1.67 1.74 1.76 1.73 1.70 1.71 1.73 1.68 1.63 1.58 1.52 1.49 1.46 1.44 1.43 1.41 1.44
0.35 0.33 0.31 0.30 0.27 0.27 0.34 0.30 0.34 0.36 0.32 0.26 0.30 0.43 0.48 0.46 0.41 0.44 0.50 0.57 0.60 0.62 0.53 0.54 0.65 0.80 0.84 0.89 0.85 0.85 0.86 0.87 0.89 0.91 0.92 0.97 1.01 1.03 1.01 1.00 1.00 1.00 1.01 1.03 1.04 1.04 1.05 1.05 1.09 1.15 1.21 1.26 1.23 1.23 1.23 1.29 1.33 1.38 1.45 1.50 1.55 1.63 1.62 1.56 1.54 1.52 1.52 1.57 1.61 1.62 1.65 1.71 1.70 1.73 1.68 1.71 1.70 1.70 1.66 1.60 1.53 1.49 1.47 1.42 1.43 1.43
0.32 0.28 0.26 0.29 0.24 0.24 0.28 0.28 0.32 0.27 0.19 0.23 0.59 0.61 0.51 0.45 0.49 0.49 0.54 0.62 0.69 0.68 0.67 0.80 0.84 0.88 0.88 0.89 0.86 0.89 0.88 0.92 0.93 0.95 0.98 0.93 0.91 0.93 0.92 0.92 0.92 0.92 0.94 0.97 1.00 1.02 1.03 1.05 1.06 1.01 1.01 1.07 1.20 1.25 1.29 1.26 1.24 1.32 1.45 1.50 1.55 1.54 1.57 1.61 1.56 1.48 1.49 1.57 1.64 1.68 1.66 1.64 1.65 1.65 1.67 1.70 1.74 1.74 1.73 1.65 1.53 1.52 1.52 1.50 1.48 1.42
0.28 0.25 0.21 0.27 0.19 0.17 0.26 0.25 0.20 0.16 0.17 0.55 0.63 0.62 0.56 0.57 0.59 0.58 0.63 0.66 0.69 0.74 0.78 0.80 0.84 0.86 0.92 0.96 0.96 0.98 1.00 1.02 1.04 0.99 0.98 0.98 0.96 0.94 0.90 0.89 0.88 0.88 0.90 0.94 0.95 0.95 0.98 1.03 1.03 1.04 0.98 0.98 1.07 1.20 1.19 1.15 1.17 1.26 1.36 1.46 1.50 1.52 1.52 1.54 1.58 1.58 1.51 1.43 1.56 1.65 1.68 1.63 1.59 1.56 1.63 1.71 1.73 1.73 1.75 1.66 1.59 1.50 1.49 1.51 1.49 1.47
0.27 0.25 0.25 0.22 0.18 0.24 0.22 0.19 0.13 0.15 0.53 0.59 0.56 0.58 0.65 0.68 0.70 0.65 0.62 0.70 0.76 0.80 0.84 0.81 0.87 0.90 0.93 0.95 0.98 1.03 1.03 1.06 1.07 1.02 0.94 0.93 0.90 0.85 0.84 0.83 0.85 0.88 0.87 0.90 0.91 0.93 0.91 0.90 0.90 0.93 0.97 0.99 0.98 0.99 1.13 1.10 1.08 1.09 1.15 1.34 1.39 1.42 1.48 1.50 1.50 1.55 1.58 1.50 1.44 1.47 1.61 1.63 1.57 1.54 1.53 1.62 1.59 1.49 1.59 1.69 1.66 1.58 1.56 1.53 1.53 1.55
0.32 0.32 0.26 0.22 0.24 0.16 0.18 0.18 0.17 0.44 0.40 0.44 0.45 0.51 0.61 0.58 0.60 0.61 0.50 0.63 0.77 0.83 0.84 0.82 0.84 0.87 0.89 0.89 0.93 0.95 0.99 1.00 0.96 0.96 0.88 0.83 0.81 0.81 0.79 0.79 0.80 0.81 0.82 0.85 0.86 0.86 0.89 0.90 0.89 0.91 0.94 0.95 0.96 0.92 0.99 1.09 1.01 0.97 0.99 1.05 1.18 1.25 1.36 1.44 1.47 1.47 1.49 1.51 1.54 1.53 1.47 1.54 1.58 1.60 1.57 1.52 1.51 1.51 1.58 1.65 1.70 1.68 1.65 1.58 1.59 1.54
0.42 0.35 0.34 0.25 0.26 0.21 0.21 0.21 0.27 0.26 0.21 0.42 0.57 0.65 0.66 0.68 0.66 0.66 0.59 0.61 0.76 0.81 0.86 0.86 0.84 0.83 0.82 0.82 0.83 0.86 0.88 0.86 0.82 0.79 0.83 0.82 0.80 0.80 0.80 0.79 0.79 0.78 0.78 0.79 0.81 0.81 0.83 0.85 0.87 0.89 0.88 0.87 0.90 0.96 0.97 1.02 1.05 0.95 0.93 0.93 0.98 1.02 1.11 1.21 1.33 1.44 1.47 1.47 1.51 1.56 1.62 1.61 1.61 1.61 1.55 1.57 1.51 1.53 1.59 1.65 1.64 1.59 1.68 1.60 1.60 1.55
0.42 0.42 0.39 0.29 0.30 0.27 0.24 0.23 0.26 0.26 0.39 0.59 0.58 0.59 0.63 0.67 0.67 0.67 0.54 0.52 0.74 0.82 0.86 0.84 0.82 0.84 0.83 0.81 0.81 0.81 0.74 0.65 0.65 0.78 0.86 0.85 0.83 0.83 0.80 0.81 0.80 0.79 0.78 0.78 0.77 0.77 0.80 0.81 0.80 0.80 0.82 0.85 0.84 0.88 0.92 0.95 0.99 0.96 0.90 0.91 0.89 0.92 0.96 0.98 1.07 1.23 1.35 1.43 1.45 1.54 1.62 1.66 1.68 1.64 1.55 1.54 1.56 1.58 1.61 1.63 1.66 1.73 1.78 1.74 1.66 1.60
0.36 0.35 0.36 0.32 0.30 0.31 0.29 0.26 0.27 0.40 0.48 0.58 0.58 0.58 0.63 0.73 0.68 0.61 0.36 0.43 0.76 0.84 0.86 0.86 0.82 0.82 0.82 0.82 0.79 0.76 0.70 0.60 0.65 0.75 0.81 0.82 0.82 0.82 0.81 0.78 0.78 0.78 0.78 0.79 0.81 0.84 0.82 0.83 0.83 0.81 0.78 0.77 0.79 0.83 0.88 0.91 0.94 0.92 0.88 0.89 0.90 0.86 0.90 0.92 0.92 1.02 1.19 1.33 1.40 1.46 1.52 1.61 1.62 1.66 1.67 1.61 1.54 1.53 1.58 1.64 1.63 1.65 1.66 1.74 1.72 1.64
0.40 0.41 0.36 0.32 0.34 0.35 0.30 0.29 0.32 0.44 0.54 0.58 0.57 0.62 0.67 0.73 0.65 0.43 0.36 0.64 0.87 0.87 0.89 0.87 0.83 0.82 0.80 0.77 0.75 0.68 0.76 0.75 0.76 0.79 0.81 0.82 0.81 0.80 0.81 0.81 0.81 0.81 0.79 0.79 0.82 0.84 0.83 0.83 0.82 0.81 0.80 0.83 0.87 0.87 0.88 0.89 0.89 0.89 0.89 0.87 0.86 0.88 0.93 0.92 0.92 0.97 1.03 1.15 1.29 1.37 1.45 1.59 1.59 1.57 1.63 1.67 1.67 1.65 1.63 1.61 1.61 1.64 1.65 1.66 1.68 1.68
0.41 0.40 0.42 0.39 0.35 0.35 0.40 0.34 0.35 0.56 0.63 0.67 0.68 0.65 0.71 0.59 0.43 0.42 0.76 0.91 0.87 0.83 0.85 0.83 0.79 0.79 0.77 0.77 0.74 0.75 0.76 0.79 0.80 0.80 0.79 0.78 0.76 0.75 0.77 0.78 0.79 0.81 0.83 0.84 0.84 0.84 0.83 0.82 0.82 0.82 0.82 0.83 0.84 0.87 0.90 0.89 0.85 0.85 0.88 0.87 0.84 0.89 0.98 0.96 0.92 0.93 0.97 1.03 1.10 1.25 1.38 1.51 1.55 1.57 1.55 1.57 1.59 1.58 1.56 1.64 1.68 1.64 1.60 1.61 1.62 1.61
0.42 0.32 0.38 0.42 0.47 0.42 0.40 0.36 0.37 0.34 0.65 0.71 0.69 0.68 0.73 0.57 0.67 0.80 0.84 0.84 0.83 0.79 0.79 0.78 0.78 0.80 0.77 0.75 0.80 0.78 0.78 0.77 0.75 0.74 0.74 0.73 0.73 0.73 0.74 0.75 0.75 0.74 0.75 0.76 0.77 0.81 0.80 0.77 0.76 0.78 0.79 0.82 0.83 0.83 0.84 0.85 0.83 0.83 0.85 0.84 0.88 0.95 0.98 0.98 0.94 0.92 0.93 0.96 1.00 1.07 1.24 1.46 1.54 1.54 1.54 1.52 1.55 1.55 1.53 1.56 1.58 1.64 1.64 1.60 1.55 1.52
0.43 0.32 0.38 0.44 0.43 0.33 0.36 0.35 0.42 0.59 0.68 0.73 0.70 0.57 0.70 0.74 0.79 0.80 0.77 0.74 0.75 0.79 0.77 0.80 0.86 0.80 0.79 0.77 0.73 0.74 0.73 0.73 0.75 0.76 0.74 0.73 0.75 0.76 0.77 0.78 0.78 0.76 0.74 0.72 0.72 0.73 0.76 0.74 0.76 0.76 0.77 0.78 0.80 0.81 0.82 0.81 0.79 0.80 0.80 0.82 0.91 0.98 0.99 0.98 0.99 0.98 0.93 0.91 0.92 0.97 1.07 1.29 1.46 1.53 1.54 1.53 1.52 1.53 1.51 1.52 1.55 1.58 1.61 1.60 1.60 1.58
0.48 0.40 0.40 0.39 0.46 0.41 0.43 0.49 0.59 0.64 0.64 0.68 0.67 0.66 0.68 0.73 0.76 0.75 0.73 0.72 0.75 0.77 0.77 0.74 0.77 0.76 0.79 0.76 0.72 0.72 0.70 0.72 0.72 0.73 0.71 0.72 0.73 0.74 0.75 0.75 0.74 0.72 0.71 0.70 0.70 0.73 0.75 0.74 0.72 0.74 0.74 0.77 0.78 0.82 0.83 0.84 0.81 0.79 0.78 0.85 0.93 0.96 0.96 0.97 0.99 0.99 0.98 0.94 0.91 0.91 0.97 1.13 1.30 1.43 1.52 1.55 1.53 1.48 1.50 1.51 1.55 1.54 1.60 1.59 1.55 1.60
0.49 0.50 0.51 0.49 0.49 0.53 0.58 0.60 0.62 0.63 0.64 0.62 0.66 0.70 0.68 0.70 0.71 0.73 0.71 0.72 0.72 0.73 0.75 0.73 0.73 0.76 0.75 0.76 0.68 0.69 0.68 0.69 0.68 0.69 0.70 0.70 0.69 0.69 0.71 0.71 0.71 0.71 0.72 0.73 0.73 0.76 0.75 0.76 0.77 0.76 0.75 0.78 0.82 0.85 0.88 0.89 0.89 0.83 0.85 0.91 0.93 0.95 0.96 0.96 0.96 0.97 0.97 0.97 0.95 0.91 0.92 0.97 1.15 1.31 1.41 1.49 1.55 1.53 1.49 1.47 1.50 1.52 1.59 1.65 1.58 1.58
0.48 0.50 0.48 0.44 0.52 0.44 0.46 0.58 0.60 0.60 0.64 0.66 0.67 0.70 0.72 0.73 0.73 0.76 0.76 0.75 0.75 0.77 0.76 0.78 0.75 0.73 0.74 0.73 0.70 0.69 0.68 0.68 0.66 0.67 0.67 0.66 0.65 0.65 0.66 0.67 0.69 0.71 0.72 0.72 0.75 0.76 0.78 0.78 0.78 0.79 0.80 0.80 0.85 0.88 0.92 0.94 0.95 0.94 0.95 0.96 0.97 0.97 0.97 0.95 0.95 0.94 0.94 0.95 0.97 0.97 0.94 0.91 1.01 1.18 1.29 1.35 1.43 1.49 1.50 1.48 1.46 1.48 1.50 1.52 1.53 1.51
0.52 0.54 0.48 0.50 0.48 0.45 0.53 0.59 0.63 0.65 0.67 0.66 0.68 0.69 0.70 0.74 0.77 0.78 0.78 0.79 0.79 0.80 0.79 0.77 0.76 0.72 0.74 0.71 0.74 0.71 0.69 0.70 0.68 0.67 0.66 0.65 0.66 0.67 0.68 0.70 0.72 0.72 0.74 0.78 0.80 0.83 0.84 0.84 0.83 0.82 0.83 0.82 0.86 0.91 0.93 0.95 0.96 0.98 1.00 1.02 1.04 1.04 1.02 0.99 0.95 0.91 0.91 0.92 0.95 0.97 0.97 0.93 0.93 1.00 1.13 1.23 1.28 1.31 1.40 1.45 1.45 1.39 1.39 1.47 1.50 1.45
0.52 0.50 0.45 0.50 0.46 0.54 0.52 0.57 0.62 0.63 0.61 0.67 0.72 0.69 0.70 0.70 0.71 0.75 0.77 0.76 0.74 0.74 0.76 0.77 0.76 0.74 0.73 0.73 0.75 0.75 0.72 0.72 0.74 0.74 0.71 0.71 0.71 0.72 0.73 0.74 0.75 0.76 0.79 0.80 0.84 0.86 0.84 0.85 0.85 0.87 0.87 0.86 0.91 0.94 0.96 0.96 0.98 1.00 1.00 1.03 1.05 1.05 1.02 1.01 1.01 0.99 0.95 0.93 0.93 0.95 0.98 0.98 0.94 0.93 1.03 1.18 1.22 1.27 1.32 1.38 1.40 1.38 1.34 1.44 1.48 1.49
0.49 0.47 0.51 0.45 0.43 0.44 0.49 0.58 0.58 0.46 0.52 0.68 0.72 0.70 0.70 0.75 0.74 0.73 0.75 0.74 0.75 0.74 0.76 0.74 0.76 0.79 0.78 0.78 0.76 0.74 0.71 0.72 0.74 0.76 0.74 0.74 0.74 0.75 0.75 0.76 0.78 0.80 0.82 0.84 0.85 0.85 0.86 0.87 0.88 0.87 0.88 0.91 0.96 0.98 0.98 0.98 1.01 1.03 1.04 1.06 1.07 1.08 1.03 1.02 1.01 1.00 0.99 0.98 0.94 0.92 0.94 0.97 0.98 0.96 0.97 1.10 1.16 1.18 1.23 1.32 1.34 1.37 1.33 1.28 1.35 1.34
0.49 0.54 0.48 0.43 0.44 0.48 0.58 0.62 0.61 0.58 0.55 0.62 0.67 0.72 0.76 0.77 0.74 0.72 0.73 0.74 0.75 0.78 0.78 0.76 0.74 0.76 0.76 0.77 0.78 0.74 0.72 0.73 0.74 0.76 0.75 0.74 0.74 0.75 0.77 0.78 0.79 0.81 0.81 0.82 0.81 0.82 0.84 0.87 0.90 0.93 0.93 0.96 1.00 1.01 1.03 1.03 1.04 1.05 1.07 1.09 1.10 1.09 1.07 1.06 1.03 1.02 1.00 1.00 0.97 0.95 0.94 0.95 0.98 1.01 1.00 0.97 1.01 1.07 1.10 1.13 1.25 1.31 1.34 1.36 1.30 1.28
Wind_Speed
6 6 6 6 5 4 4 5 6 5 5 6 6 6 7 8 7 6 6 5 6 6 5 4 6 7 7 7 6 4 3 4 5 5 5 5 4 4 4 4 4 5 4 4 5 5 6 6 7 8 9 9 10 11 11 12 12 13 12 12 12 12 12 12 12 13 13 13 13 13 13 13 13 12 12 12 12 12 12 11 11 11 10 10 10 10
7 8 7 6 5 5 5 5 6 6 6 6 6 6 7 7 6 6 6 5 5 6 5 4 7 7 7 7 6 4 4 5 5 5 5 5 5 4 4 5 4 5 4 4 5 6 6 7 8 8 8 9 10 10 11 12 13 13 13 13 13 13 13 13 13 13 13 13 13 13 13 13 13 13 12 12 12 12 12 11 11 10 10 10 10 10
9 10 8 5 5 6 6 6 7 7 7 7 6 6 6 6 6 5 4 4 4 5 5 6 7 7 6 6 5 5 5 6 5 5 5 5 5 4 4 4 5 5 4 4 5 6 7 8 8 8 9 9 9 10 11 12 12 13 13 13 13 13 14 14 14 14 14 14 14 13 13 13 13 13 12 12 11 11 12 12 11 10 10 10 10 10
9 8 7 6 6 7 7 7 8 8 8 7 7 7 7 6 7 5 4 4 5 6 7 7 7 7 6 5 3 4 5 5 4 4 4 5 4 4 4 4 4 5 5 5 6 6 7 8 8 9 9 9 9 9 10 10 11 12 13 13 14 14 14 14 15 15 15 14 14 14 13 13 13 13 12 12 11 11 12 12 11 10 10 10 10 11
9 6 6 6 7 7 8 7 8 8 8 8 8 8 8 7 7 6 6 6 5 5 5 7 7 6 5 4 3 3 3 3 3 3 4 4 3 3 4 4 4 5 5 6 6 7 7 8 9 9 9 9 9 9 9 10 10 11 12 13 14 14 14 15 15 16 16 15 15 15 14 14 14 13 13 13 12 12 12 12 11 11 10 10 11 11
11 8 6 7 7 7 8 8 7 8 9 8 8 8 8 8 7 7 7 7 7 5 4 6 7 5 5 4 3 3 3 2 1 2 2 2 2 3 3 4 4 5 6 6 7 8 8 9 9 9 9 9 10 10 10 10 10 11 11 12 13 14 14 15 15 16 16 16 16 16 16 16 15 15 15 15 14 13 12 12 11 11 11 11 11 12
8 6 7 8 8 8 9 9 8 8 9 8 6 6 7 7 8 8 8 8 8 6 5 6 7 6 5 4 3 4 3 2 2 1 1 1 1 2 3 3 4 5 6 7 8 8 8 8 8 9 9 9 9 10 10 10 11 11 11 12 13 13 14 15 15 16 17 17 17 17 17 17 16 16 16 15 14 13 12 12 11 11 11 11 11 12
7 6 7 8 8 9 9 8 7 7 9 8 5 6 7 8 8 8 8 8 7 7 6 6 6 7 6 4 3 4 3 3 4 2 1 1 0 1 3 4 4 5 6 6 7 7 7 7 7 7 8 8 9 9 10 10 11 11 12 12 13 13 14 15 15 16 17 18 18 18 18 18 17 17 16 15 15 14 13 12 12 11 11 12 12 12
7 8 8 8 8 8 8 7 6 7 10 8 6 8 8 8 9 8 8 9 7 8 8 5 5 7 6 4 3 3 3 2 2 2 2 2 3 2 3 4 4 4 5 5 6 6 5 5 6 6 6 7 8 9 9 10 11 11 12 12 13 13 14 15 16 17 18 19 19 19 19 18 18 17 17 16 16 15 14 14 13 12 12 12 12 13
7 7 7 8 9 9 8 8 7 9 9 7 7 9 9 9 9 8 8 8 7 8 8 4 5 7 6 4 3 3 3 2 2 2 2 3 4 4 4 4 4 4 4 5 5 5 4 4 5 5 5 6 7 8 9 10 10 11 12 13 13 14 14 15 16 17 18 18 19 19 19 19 18 18 17 17 16 16 15 15 15 14 13 13 13 13
7 7 7 8 9 9 8 8 8 9 8 7 8 9 9 9 8 8 8 7 8 8 6 4 5 7 5 4 3 3 2 1 1 2 2 3 4 4 4 4 4 5 5 5 5 5 4 4 5 5 5 6 6 7 8 9 10 11 12 13 14 14 15 15 16 17 18 19 19 20 20 19 19 19 18 16 17 17 16 16 16 15 14 13 13 13
9 8 7 7 8 8 8 8 8 8 8 8 8 8 9 8 7 8 7 7 8 6 3 3 4 6 5 4 3 2 2 2 2 2 2 3 4 4 5 5 5 6 5 5 5 5 4 4 5 5 6 6 7 7 8 9 10 11 12 13 14 15 15 15 16 17 19 20 20 21 21 20 18 18 17 17 17 17 17 17 17 16 15 14 13 13
8 8 7 6 6 7 8 8 6 7 8 8 8 7 8 7 6 8 7 6 7 4 2 3 4 5 6 4 4 3 2 3 3 3 3 3 3 4 4 4 5 6 6 6 5 5 5 5 5 5 6 7 7 8 9 9 10 11 11 13 14 14 14 15 16 18 19 18 19 19 19 18 16 16 17 17 17 17 17 17 17 16 15 15 14 14
6 6 7 6 6 6 8 8 6 6 7 8 7 7 7 7 7 7 6 6 6 3 1 3 4 5 4 3 4 4 3 3 3 3 3 2 2 3 4 4 5 6 6 6 6 6 5 5 5 6 6 7 7 8 9 9 10 10 11 11 12 13 13 14 15 17 17 16 16 15 14 14 15 15 16 17 17 17 17 16 16 15 14 14 14 14
6 6 5 6 6 6 7 7 6 5 6 6 6 6 7 7 7 7 6 5 5 3 2 2 4 5 4 3 3 3 3 3 3 2 2 2 2 3 4 5 6 6 7 6 6 6 5 5 6 6 7 7 8 8 9 10 10 9 9 10 10 11 12 12 13 13 14 14 14 13 12 13 14 15 16 16 16 17 17 16 16 15 14 13 13 14
8 5 3 4 5 5 6 5 6 6 5 5 5 7 7 6 6 7 6 6 6 5 4 4 5 5 4 3 2 3 4 3 3 3 2 2 2 2 4 5 6 6 7 7 7 6 6 6 6 7 8 8 8 9 9 10 9 8 8 8 9 10 10 10 11 11 11 11 12 12 12 13 14 15 15 16 16 16 17 17 16 15 15 14 13 13
8 5 3 4 4 4 5 4 5 6 5 4 6 7 5 5 7 8 7 6 7 7 5 5 6 5 4 3 2 3 3 2 2 2 1 1 1 3 4 5 6 6 7 7 7 7 7 7 7 8 8 9 9 9 9 9 9 8 8 8 8 9 9 9 10 10 10 10 11 11 12 12 12 14 15 16 16 16 17 16 16 15 15 16 15 14
7 5 4 5 4 3 4 4 4 5 6 6 6 5 4 6 7 8 7 6 7 7 6 5 7 6 4 3 3 4 3 3 3 2 3 3 3 4 5 5 6 6 7 7 7 7 7 7 8 8 8 9 9 9 10 9 9 8 8 8 8 8 9 9 9 10 10 11 11 11 11 12 12 13 14 15 15 16 16 16 16 16 16 16 16 15
6 6 4 5 5 4 5 5 4 4 5 6 6 5 6 7 6 7 8 8 7 8 6 5 7 6 4 4 4 5 5 6 6 5 5 5 5 5 5 5 6 6 7 8 8 8 8 8 9 9 9 9 9 9 10 9 9 9 8 8 8 8 8 9 9 10 10 10 11 11 11 11 11 11 12 13 14 15 15 16 16 16 16 17 17 17
6 7 5 4 5 5 6 7 6 5 5 6 6 6 6 7 7 7 8 8 8 9 7 6 6 5 4 6 7 7 6 7 7 6 6 6 6 6 6 7 7 7 7 8 9 9 9 9 9 10 10 9 9 9 10 10 9 9 9 9 8 8 8 8 9 9 9 9 10 10 10 10 10 11 11 11 12 14 15 16 16 17 17 17 17 17
5 6 6 5 5 6 5 5 6 6 6 7 7 7 6 7 7 7 8 8 9 9 8 9 8 5 5 7 8 7 8 7 7 7 6 7 7 7 7 8 8 8 8 8 9 10 10 10 10 11 11 10 9 9 9 10 9 9 9 9 9 8 8 8 9 9 9 9 9 9 9 9 9 10 10 10 11 13 14 15 16 16 17 17 17 17
5 5 6 6 5 5 5 4 5 5 6 7 7 7 8 8 8 9 8 7 8 9 9 9 8 5 6 8 7 8 8 8 8 7 7 7 7 8 8 8 9 9 9 9 10 10 11 11 11 11 11 10 10 9 9 10 10 10 9 9 9 9 9 9 9 9 9 9 8 8 8 9 9 9 10 10 10 12 13 15 15 16 16 17 17 17
5 6 6 6 5 5 4 4 5 6 6 7 7 7 8 8 9 10 9 8 9 9 9 11 10 7 7 8 7 7 8 8 8 8 7 7 8 8 9 9 9 10 10 10 10 11 11 12 12 12 11 11 10 9 9 10 10 10 10 9 9 9 9 10 9 9 9 8 8 8 8 8 9 9 9 9 9 10 11 12 14 15 16 16 17 18
6 6 6 5 5 4 5 5 6 7 7 7 6 6 8 8 8 10 10 10 11 10 10 12 10 7 7 7 7 7 7 7 8 8 8 8 8 9 10 10 10 11 11 11 11 11 12 12 12 12 12 11 10 10 10 10 10 10 10 10 10 9 9 9 9 9 9 9 8 8 8 8 9 9 9 9 9 9 9 9 12 14 15 16 17 17
6 6 6 6 6 5 6 6 6 6 7 7 7 7 8 9 10 11 11 11 12 11 11 13 11 8 8 8 8 8 8 8 8 8 8 9 9 10 10 11 11 11 12 12 12 12 12 13 13 13 12 12 11 11 11 11 11 11 11 11 11 10 10 10 10 9 9 9 8 8 8 8 9 9 9 9 9 9 9 9 9 11 13 15 16 17
8 7 7 8 9 8 8 8 7 7 8 8 8 8 9 10 11 11 11 12 13 11 12 14 12 8 9 9 9 9 9 9 9 9 9 9 10 10 11 11 12 12 12 12 12 13 13 13 13 13 13 13 13 12 12 12 12 12 12 13 12 12 11 11 10 10 10 9 8 8 8 8 9 9 10 10 10 10 9 9 9 9 11 14 16 17
9 9 9 10 11 11 11 10 9 10 11 11 10 10 10 10 11 12 12 13 12 12 13 13 11 9 9 10 10 10 10 11 10 9 9 10 10 10 11 11 11 12 13 13 13 13 14 14 14 14 14 14 14 13 13 13 13 13 13 13 13 13 13 13 12 11 11 10 9 8 8 8 9 9 10 10 10 9 9 9 9 9 10 11 13 15
10 10 11 12 13 12 11 11 11 12 13 13 13 12 12 11 12 13 14 13 13 14 14 12 10 10 10 10 11 10 10 11 10 9 9 9 10 10 10 11 11 12 13 14 14 14 14 15 15 15 15 15 14 14 14 14 14 14 14 14 14 14 14 14 14 13 12 11 9 8 8 9 9 9 9 9 9 9 9 10 10 10 10 11 12 14
12 12 11 12 14 13 12 12 12 13 14 14 14 14 13 13 13 14 15 14 14 16 15 13 12 12 11 12 11 10 10 10 9 9 9 10 10 11 11 12 12 13 14 14 15 15 15 15 15 15 16 15 15 15 15 15 15 15 16 16 16 15 15 15 15 15 14 13 11 10 9 9 9 8 9 9 9 9 9 10 10 10 11 11 12 13
12 13 12 13 15 14 13 13 13 14 14 14 14 14 14 14 14 15 15 14 15 15 14 13 13 12 12 13 11 10 11 11 11 12 12 12 12 13 13 14 14 14 14 15 15 16 16 16 16 16 16 16 17 17 16 16 16 17 17 17 17 17 16 16 16 16 16 15 14 12 9 9 9 9 9 9 9 9 10 10 10 11 11 12 12 13
12 13 12 13 15 15 14 14 14 14 14 15 15 14 14 15 14 14 14 14 14 13 12 12 12 12 13 12 11 12 13 13 13 13 14 14 15 15 15 15 14 15 15 16 16 17 17 17 17 17 17 17 18 18 18 18 18 18 18 18 18 18 18 17 17 17 17 17 16 14 12 11 10 11 11 11 11 10 11 11 11 11 12 12 12 13
13 13 13 14 16 16 14 14 14 14 15 17 16 14 14 14 14 13 13 13 14 13 12 12 12 12 12 11 12 13 13 13 14 15 15 16 16 16 16 16 15 15 16 16 17 17 18 19 19 19 19 18 18 19 19 19 19 19 19 19 19 19 19 19 18 18 18 17 17 17 15 14 13 13 13 13 13 12 12 12 12 12 12 12 13 14
15 15 14 14 16 15 13 13 14 14 15 16 14 12 12 12 12 12 12 12 13 13 13 13 12 11 11 12 12 13 14 14 15 15 16 17 16 16 16 17 17 17 17 18 18 19 19 20 21 21 21 21 21 21 20 20 20 20 20 20 20 20 20 20 20 19 19 18 18 18 17 16 16 15 15 15 15 14 14 13 13 13 13 13 13 13
15 16 15 15 16 15 12 12 14 15 15 13 11 11 12 12 12 12 11 11 11 12 12 12 11 11 11 12 13 14 15 15 14 15 16 16 16 16 16 16 17 18 18 19 20 20 21 21 21 22 22 22 22 22 22 21 21 21 21 21 21 21 21 21 21 20 20 19 19 18 18 17 17 17 17 16 16 16 15 15 14 14 13 13 13 14
14 15 14 14 15 14 12 12 15 15 12 10 10 11 12 12 11 10 10 10 10 11 11 11 11 12 12 13 14 14 14 14 15 15 15 15 16 16 16 16 17 18 19 19 20 20 21 21 21 21 21 22 22 23 23 23 22 22 21 21 21 21 22 22 22 21 20 20 20 20 19 19 18 18 18 17 17 17 16 16 15 15 15 14 14 14
13 13 13 13 14 13 13 13 14 12 10 10 11 11 11 11 10 10 10 10 10 11 11 11 11 12 13 14 14 14 14 15 15 15 15 15 16 17 17 18 18 19 20 21 21 21 22 22 22 22 23 23 23 24 24 24 25 24 23 22 22 22 23 23 23 22 22 22 21 21 21 21 20 20 19 19 18 18 18 17 17 16 16 16 15 15
13 12 12 12 12 12 13 13 11 11 12 12 11 11 11 11 11 12 12 11 11 11 11 11 11 11 12 12 13 13 14 15 15 15 15 16 17 18 19 20 20 21 22 23 23 24 24 24 25 25 25 25 26 26 26 26 26 26 25 24 24 24 24 24 24 24 24 23 23 23 23 23 23 22 21 21 20 20 20 19 19 18 17 17 17 16
11 11 11 11 11 11 13 13 12 12 12 10 9 10 11 12 12 13 13 12 11 12 12 12 11 11 12 12 13 13 14 15 15 14 15 17 19 20 21 21 22 23 24 25 26 26 26 26 26 27 27 28 28 28 28 28 28 28 27 26 26 26 25 25 25 25 25 25 24 24 24 24 24 23 23 22 21 21 21 21 21 20 19 18 18 18
9 10 10 11 11 11 12 13 13 12 10 9 9 11 12 13 13 13 14 13 12 12 13 12 12 12 13 14 15 15 16 16 16 16 17 20 21 22 23 24 25 25 26 26 27 27 27 27 28 28 29 29 29 29 29 29 30 30 29 28 28 28 27 26 26 26 26 26 26 25 24 24 24 24 24 23 23 22 22 22 22 22 21 20 20 19
8 9 10 11 11 11 11 13 13 11 10 10 11 12 12 12 13 14 15 14 12 12 13 13 13 14 14 16 17 17 17 18 19 20 22 23 24 25 25 26 27 27 28 28 28 28 28 28 29 29 29 29 29 30 30 30 30 31 31 30 30 29 29 28 28 27 27 27 27 26 25 24 24 24 24 24 24 23 23 23 23 23 22 22 21 20
8 9 10 11 11 10 11 13 12 10 10 12 12 12 13 13 14 15 15 13 12 13 13 14 15 16 17 18 18 18 19 20 22 24 25 25 26 26 27 28 28 28 29 29 29 29 29 29 29 29 29 30 30 30 30 31 31 31 32 32 32 31 30 30 30 29 29 28 28 28 27 26 25 25 25 24 24 24 24 24 24 24 23 23 22 21
8 9 10 10 11 11 11 13 13 10 11 13 13 12 13 14 14 14 13 13 13 14 15 16 17 17 18 19 20 20 21 23 24 25 26 26 27 27 28 28 28 28 29 29 29 29 29 29 29 30 30 30 31 31 31 31 32 32 32 32 33 32 32 32 31 31 30 30 30 30 29 28 27 26 25 25 25 25 24 24 25 24 24 24 23 23
9 10 10 9 10 11 12 13 13 11 11 13 13 12 13 13 13 13 13 14 15 15 16 17 18 18 19 20 21 22 23 24 25 25 26 27 27 27 27 27 27 28 28 28 29 29 29 29 30 30 30 31 32 32 32 33 33 33 33 33 33 33 33 33 32 32 31 31 31 31 31 30 28 27 26 25 25 25 25 25 25 25 25 24 24 24
9 11 11 9 10 12 12 12 12 11 11 12 12 12 12 12 13 14 14 15 15 16 17 18 18 19 20 21 22 23 24 25 25 25 25 26 26 26 26 26 27 27 28 28 29 29 29 29 30 30 31 31 32 32 32 33 33 34 34 34 34 34 33 33 33 33 32 32 31 32 32 31 30 28 27 26 26 25 25 25 25 26 26 26 25 25
10 10 11 11 11 11 12 11 11 11 12 12 11 11 12 12 14 15 15 16 16 17 18 19 20 21 21 22 24 24 25 25 25 25 26 26 26 26 27 27 27 28 28 29 29 29 29 30 30 31 31 31 32 32 32 32 33 33 34 33 33 34 34 34 33 33 33 32 32 32 32 32 31 30 29 27 26 25 25 25 25 26 26 26 26 26
10 11 12 12 11 11 12 12 12 12 12 12 12 13 13 14 15 16 16 17 18 19 19 20 21 22 23 24 24 25 25 26 26 26 26 27 27 27 28 28 28 28 29 29 29 29 30 30 31 31 31 31 31 31 32 32 32 32 32 32 32 32 33 33 33 33 33 33 32 32 32 33 32 31 30 29 28 26 26 25 25 25 26 26 26 26
10 12 12 12 12 12 13 12 12 12 13 13 14 14 15 15 16 16 17 18 19 20 21 21 22 23 24 24 24 25 25 26 27 27 27 27 28 28 28 29 29 29 29 29 30 30 30 30 30 31 31 31 31 31 31 30 30 30 30 30 30 30 31 32 32 32 33 33 32 31 31 32 32 32 31 30 29 28 27 26 26 26 26 26 26 26
11 13 13 12 13 13 13 13 13 14 15 15 16 16 16 16 17 17 18 19 20 20 21 22 23 23 24 24 24 25 26 26 26 27 27 27 27 28 28 29 29 29 30 30 30 30 30 30 30 31 31 31 31 30 30 30 29 29 29 29 29 29 29 30 31 31 32 32 32 32 31 32 32 32 32 31 31 30 29 28 27 26 26 26 26 26
13 14 13 13 14 14 13 13 14 15 15 15 15 16 17 17 18 18 19 20 20 21 21 22 22 23 23 24 24 25 26 26 26 27 27 27 27 28 28 29 29 30 30 29 30 30 30 30 31 31 31 31 31 30 30 29 29 29 29 29 29 29 29 30 30 30 31 31 32 32 31 31 32 32 31 31 31 31 31 30 29 28 27 27 26 26
14 14 14 14 15 14 13 14 15 16 16 15 16 17 17 18 19 19 20 20 21 21 21 22 22 23 23 24 25 25 26 26 26 27 27 27 27 28 28 29 29 29 29 29 30 30 30 30 30 31 31 31 30 30 29 29 29 28 28 29 29 29 29 29 29 30 30 30 31 31 31 31 31 31 31 31 31 31 32 32 31 30 29 28 28 27
14 14 14 15 14 14 14 16 16 17 17 17 18 18 18 19 19 20 20 20 21 21 21 22 23 23 24 25 25 26 26 26 27 27 27 27 28 28 28 28 28 28 29 29 29 29 29 29 30 30 31 30 29 29 29 28 28 28 28 28 28 28 29 29 29 29 29 29 30 30 31 31 31 31 31 31 32 32 32 32 32 31 31 31 30 29
Wind_Direction
247 259 259 265 272 280 284 270 274 286 288 293 297 298 308 315 325 342 338 330 324 317 314 308 306 306 306 310 309 299 297 302 299 292 291 296 293 283 270 263 263 268 276 282 273 270 266 261 261 259 256 254 251 250 248 247 248 249 248 246 246 245 242 241 240 240 240 240 242 243 244 244 245 245 246 249 251 253 253 254 257 257 255 251 246 238
247 257 265 273 278 278 277 271 268 271 274 280 288 296 304 308 321 343 341 332 328 319 323 323 308 303 300 304 309 302 295 299 296 287 280 283 285 277 265 259 260 267 278 285 278 274 269 265 266 266 264 260 255 252 251 250 249 249 248 247 247 246 243 242 240 240 241 241 242 243 244 246 246 245 246 250 252 252 252 252 253 254 251 247 242 234
251 258 264 269 274 271 267 264 262 264 269 271 280 291 300 313 319 328 334 328 326 321 327 330 314 305 301 302 311 309 305 307 301 290 284 283 281 268 264 266 266 268 271 278 282 280 274 268 266 266 266 264 259 256 254 253 252 250 249 249 249 248 246 244 242 242 243 243 244 245 245 246 248 247 246 249 251 250 250 250 250 250 247 242 237 231
252 258 261 259 268 270 263 258 258 260 263 265 275 286 294 314 315 310 323 320 314 318 323 323 314 308 303 298 314 325 317 312 295 280 278 283 283 271 275 282 275 271 270 275 283 285 280 273 267 264 263 263 262 259 256 254 254 253 251 250 250 249 248 246 245 244 245 246 246 248 248 247 248 248 247 246 247 246 248 250 249 249 246 240 235 228
252 262 267 262 262 267 265 260 257 259 260 261 267 279 291 308 311 308 318 318 307 305 312 314 310 316 320 308 319 341 331 317 294 270 263 269 283 283 288 292 284 283 283 283 286 286 282 277 271 266 262 261 261 261 258 255 254 254 253 251 251 251 250 249 247 245 245 247 247 248 248 247 247 247 246 246 246 245 248 249 248 246 244 239 234 227
251 257 261 261 260 264 267 265 261 260 264 267 263 267 285 301 305 302 308 312 303 299 319 319 313 329 340 322 324 337 332 332 296 255 245 245 268 281 290 294 289 289 288 289 291 289 285 279 276 272 267 263 261 261 261 258 256 255 255 253 253 253 253 252 249 246 245 247 247 246 246 246 246 245 244 245 246 245 245 246 245 242 239 236 232 226
247 248 248 258 266 265 265 265 264 259 262 273 271 264 281 293 296 297 301 303 303 309 318 310 307 320 329 329 338 328 330 6 351 300 198 183 240 281 300 303 294 290 290 294 297 295 290 284 279 278 274 271 266 263 262 261 259 257 257 257 256 257 257 255 253 249 247 246 245 245 245 245 244 244 243 243 245 244 242 241 239 238 236 233 230 226
236 236 240 254 266 265 264 264 263 260 260 270 282 279 282 287 290 294 295 292 301 309 298 283 292 305 314 332 343 323 336 13 349 335 19 66 52 323 321 319 307 301 300 302 304 302 296 289 285 284 282 281 276 269 265 263 262 260 260 260 259 259 259 258 256 252 249 248 247 244 245 245 243 243 242 242 243 242 241 238 235 234 234 232 228 225
233 238 246 256 262 263 269 277 276 265 262 271 285 283 282 284 287 288 286 287 297 303 292 276 281 293 305 325 331 329 340 353 346 355 14 31 48 24 345 336 329 324 318 313 314 314 307 297 293 293 291 289 283 277 270 267 265 264 262 262 261 261 261 260 257 254 252 252 250 247 245 245 244 242 242 242 241 240 239 238 235 232 231 230 227 223
242 244 258 264 265 269 279 284 278 266 265 277 282 277 275 275 276 275 278 286 291 289 288 289 289 293 306 319 322 338 335 330 358 12 22 33 37 24 3 354 350 348 340 329 325 324 322 315 309 304 300 295 289 284 276 270 268 266 264 263 263 263 264 263 260 258 256 255 255 253 250 248 247 245 242 240 241 239 237 238 236 232 230 228 225 223
250 245 256 262 265 275 283 276 269 266 267 274 274 271 268 264 266 269 273 284 285 278 284 298 294 291 300 316 323 323 310 307 351 6 24 24 24 19 11 7 3 356 346 339 333 331 331 329 325 320 312 303 296 292 285 278 273 270 268 267 266 266 267 268 266 265 265 264 263 260 257 253 250 247 245 243 243 242 239 238 237 234 231 227 224 223
245 240 247 259 263 271 278 272 264 261 261 265 269 271 268 259 259 265 260 266 274 275 294 312 297 284 283 302 323 309 274 285 312 331 359 5 12 13 8 9 5 356 351 347 340 337 335 330 329 326 320 312 305 300 296 291 285 279 275 273 271 270 271 273 272 272 274 273 271 269 264 259 253 249 250 250 249 247 244 241 238 234 231 228 226 224
237 240 246 257 261 265 276 275 261 253 251 257 263 264 265 259 259 263 256 256 269 272 301 308 296 280 280 302 315 296 269 272 284 298 320 342 360 2 1 5 2 356 356 355 348 343 339 335 331 326 322 318 313 309 305 300 294 289 284 281 277 276 278 279 276 277 279 276 276 278 271 261 256 254 253 254 253 252 251 247 242 237 233 230 227 223
222 233 244 255 259 262 273 273 265 255 244 246 255 255 259 264 265 265 262 263 268 267 296 301 284 275 282 307 306 288 273 265 266 282 299 314 342 348 349 354 358 359 359 356 352 347 344 339 335 330 327 324 320 316 311 305 300 295 290 286 285 283 284 285 282 281 281 277 278 282 273 259 256 256 255 255 255 253 254 255 251 245 240 235 229 225
233 234 246 266 271 269 271 269 275 277 249 242 257 262 266 273 271 271 273 273 272 267 262 269 270 281 299 307 290 277 263 255 252 260 266 272 309 332 341 349 356 359 358 355 350 347 345 341 336 333 331 332 329 323 317 312 307 301 294 290 289 288 289 289 288 286 283 279 278 278 272 264 261 259 258 258 256 254 256 260 260 255 249 245 239 232
246 249 261 280 278 277 279 267 264 270 257 245 254 261 268 275 270 273 279 282 285 280 265 257 266 283 296 286 275 266 251 242 241 239 237 245 283 328 346 354 356 357 357 355 350 346 344 340 337 335 334 335 335 331 326 323 319 313 304 299 296 294 295 294 291 290 288 284 281 276 272 271 267 263 263 262 258 254 255 259 262 260 252 247 244 240
245 249 248 259 264 276 287 274 253 259 262 252 252 256 264 276 275 272 270 263 267 270 265 264 269 273 273 275 297 289 264 247 240 235 254 295 331 344 349 352 351 353 354 353 351 346 341 340 339 337 337 337 337 335 333 331 330 325 316 311 306 300 299 298 294 292 290 287 285 280 275 274 273 268 265 263 259 255 255 255 258 257 251 245 242 241
251 247 232 245 256 258 271 275 259 257 262 261 265 267 265 272 270 264 263 257 255 262 263 263 270 274 272 276 312 320 303 289 289 294 300 312 336 340 339 341 341 345 347 347 348 343 338 339 339 338 338 338 337 336 336 336 334 330 324 318 313 306 302 301 300 296 293 290 287 282 277 274 275 273 268 263 258 255 255 253 251 251 249 245 240 239
250 247 229 244 262 254 249 261 257 246 255 266 276 275 269 274 269 254 260 265 263 267 270 264 267 276 284 286 302 313 304 291 293 297 293 302 324 324 321 327 329 334 338 340 342 338 333 332 334 336 336 335 335 336 337 336 333 331 328 324 319 315 309 306 306 303 299 296 290 285 280 275 276 277 273 266 259 256 254 251 247 246 246 243 239 237
247 251 244 245 265 262 254 261 262 253 251 259 265 263 267 278 279 269 267 270 271 272 274 274 271 275 291 294 294 299 299 291 286 284 290 304 315 313 311 313 316 322 328 331 334 335 331 328 328 331 331 330 330 331 334 334 332 331 329 327 324 322 318 313 311 309 306 303 297 290 284 279 279 280 278 271 263 258 255 250 244 242 243 242 238 236
245 255 254 250 259 262 264 274 278 271 264 264 265 265 269 273 274 274 271 269 272 273 272 274 273 275 292 292 289 288 288 287 282 278 288 303 308 307 308 307 309 313 318 323 327 329 329 326 324 324 326 324 321 323 327 328 329 329 329 328 325 323 324 319 316 315 312 309 302 294 287 285 284 283 279 274 268 264 258 249 242 241 241 241 239 236
246 256 260 263 265 265 270 276 279 281 279 278 277 275 276 276 274 273 269 263 267 272 274 275 273 278 290 289 288 285 282 282 282 278 281 295 303 304 305 305 306 307 310 315 320 324 326 325 322 321 320 318 316 316 319 320 322 324 327 329 327 325 325 324 322 319 315 313 307 297 290 289 289 285 279 275 274 271 260 247 242 241 240 240 239 236
257 261 261 268 274 273 266 265 274 282 285 284 281 280 280 279 278 276 276 275 271 270 272 272 271 278 289 291 290 287 285 284 284 281 279 286 296 301 304 305 305 306 307 310 314 318 321 322 321 321 318 316 313 312 312 313 315 317 320 325 328 326 325 325 325 322 318 315 310 303 297 294 292 286 280 276 277 278 266 248 242 243 242 240 239 236
257 258 258 262 266 262 255 262 272 275 278 277 278 287 287 284 285 282 281 280 274 272 273 271 268 275 287 291 291 289 287 286 285 284 281 282 288 296 302 303 304 305 306 308 310 313 316 319 320 321 320 317 313 310 309 308 310 312 315 319 323 324 322 323 323 322 319 316 312 309 306 302 295 286 282 282 280 281 275 256 246 244 243 242 238 236
257 257 256 257 258 256 256 265 267 264 272 276 280 291 288 284 285 281 277 274 272 274 279 276 273 274 278 284 290 289 288 287 286 284 283 285 287 291 296 299 301 304 305 307 309 311 315 318 319 319 319 317 313 311 309 308 309 309 310 313 317 318 317 317 318 317 317 315 313 311 310 307 300 289 284 284 281 279 275 266 256 250 246 244 241 237
264 264 262 263 267 270 272 279 281 280 282 281 279 282 283 283 285 282 277 273 273 275 276 275 272 263 266 278 286 286 284 283 282 283 284 286 287 290 293 295 298 300 303 307 309 311 314 316 318 319 318 317 314 311 309 308 309 309 309 309 311 312 311 311 312 311 310 311 310 311 311 307 301 295 290 286 281 277 273 266 261 258 252 246 243 240
265 265 263 265 271 274 277 281 283 282 282 282 281 279 279 281 281 280 276 274 279 281 276 276 270 255 259 274 279 280 280 277 278 282 284 284 285 288 290 293 297 298 301 304 306 309 312 315 317 317 317 317 315 312 310 308 308 309 309 309 309 309 307 306 306 304 303 302 302 308 313 307 299 296 294 291 287 281 274 265 259 258 256 251 246 243
265 264 260 261 267 271 275 277 276 276 277 280 282 281 280 280 278 277 276 277 284 283 278 279 273 260 264 275 278 278 277 275 277 282 285 286 286 288 289 292 296 299 301 303 305 307 309 311 313 314 314 314 315 314 312 309 308 308 308 308 308 307 305 303 302 300 297 293 292 298 304 303 300 296 294 294 292 285 277 269 263 259 257 255 250 247
267 267 262 262 267 268 270 273 273 274 276 278 280 281 282 282 279 278 278 280 281 278 277 279 274 268 270 274 274 272 270 271 275 278 281 285 286 287 288 291 294 296 298 300 302 304 305 306 307 310 311 311 311 312 312 309 307 305 305 305 304 304 303 301 299 297 294 289 286 287 291 295 296 293 291 292 291 285 280 274 268 263 259 257 254 252
270 270 265 266 270 267 265 269 271 272 274 275 276 278 280 282 282 282 282 282 279 275 275 275 272 272 275 273 268 266 268 269 271 272 276 281 283 284 285 288 290 291 293 295 297 299 301 302 303 305 308 310 310 309 309 308 306 304 304 303 301 301 300 298 296 295 293 289 285 283 283 286 287 285 284 285 285 283 279 275 271 266 263 259 256 254
268 270 269 269 272 269 264 265 269 271 272 274 275 276 276 277 279 280 281 281 279 275 273 271 272 274 274 270 265 265 268 269 272 276 279 280 283 285 285 287 288 289 291 292 294 296 298 299 299 301 304 306 307 306 305 304 303 303 302 301 300 299 297 296 293 292 291 289 286 284 283 285 284 281 279 279 280 278 275 273 271 268 264 260 257 255
265 269 271 268 271 273 266 262 267 270 272 273 272 270 272 274 276 278 278 278 278 275 269 268 273 273 269 266 265 267 270 273 278 281 280 281 285 286 287 288 287 289 291 291 292 294 295 296 296 296 298 301 303 304 302 300 300 300 300 299 298 296 294 293 291 289 288 286 284 283 283 283 282 279 277 277 277 275 272 269 268 266 264 261 258 255
265 268 270 267 270 274 268 263 269 272 273 274 270 267 272 275 275 276 277 277 277 275 272 273 276 274 269 268 268 270 274 278 282 282 280 283 286 286 286 286 286 287 289 288 290 291 293 294 294 293 293 295 298 299 300 300 298 298 297 297 296 294 292 290 289 287 285 283 280 279 278 279 279 277 275 274 274 273 270 267 265 265 264 262 259 256
266 267 268 267 269 271 268 265 269 270 271 275 274 273 277 277 273 273 276 278 278 277 279 280 278 272 270 273 274 276 279 281 282 281 281 283 284 284 285 285 285 286 287 287 288 289 290 291 291 291 291 293 294 294 296 298 298 298 296 295 294 293 291 289 286 284 283 281 278 276 275 276 277 277 275 273 273 272 269 265 264 264 263 262 260 257
267 265 265 265 267 270 268 264 266 269 270 272 274 275 278 278 273 271 276 280 281 281 280 278 275 273 275 278 280 280 280 281 280 281 283 283 283 285 286 286 286 287 287 287 288 289 290 290 290 290 291 292 292 292 292 294 296 297 295 293 292 291 290 289 287 284 281 279 277 275 274 273 273 273 274 273 272 271 268 265 263 262 261 260 259 257
267 265 265 264 264 267 266 262 265 273 272 270 274 276 275 273 268 268 275 279 279 280 280 278 277 278 278 279 281 280 278 278 278 279 282 285 286 288 289 289 290 289 288 288 288 288 289 289 290 289 289 289 290 290 289 289 292 294 293 291 290 289 288 287 286 284 282 279 277 275 273 273 271 269 269 269 269 268 266 264 263 261 259 257 257 256
264 265 265 264 262 265 267 263 265 272 269 265 270 273 273 273 272 273 278 278 276 277 279 280 280 280 279 279 281 279 277 278 279 279 282 288 290 290 290 291 292 291 291 290 290 289 288 287 287 287 287 287 287 287 287 287 288 291 291 289 289 288 287 285 284 283 282 280 278 276 274 273 271 269 267 265 264 263 263 262 262 261 259 256 255 255
265 266 266 266 264 265 269 267 266 271 270 266 268 274 278 279 278 278 278 275 274 276 278 280 281 282 282 284 285 283 280 281 282 282 286 292 293 292 292 292 293 293 293 293 292 290 289 288 288 287 287 286 285 285 285 285 286 288 288 287 288 287 286 285 284 282 281 280 279 277 274 273 272 270 269 267 264 262 261 260 259 260 259 256 253 254
267 267 267 268 267 267 268 269 271 274 275 274 275 279 281 278 275 277 277 274 273 276 278 279 281 283 285 289 290 287 285 284 284 285 291 294 294 294 293 293 293 293 293 293 293 292 291 290 289 288 286 286 285 286 286 285 285 286 285 285 286 285 284 283 283 282 280 279 279 277 275 273 272 271 270 269 268 265 263 261 259 258 258 257 255 254
269 268 268 269 270 269 268 271 277 279 279 280 282 283 284 279 273 273 276 276 274 275 278 279 281 285 288 290 290 288 287 287 286 288 293 294 294 294 294 293 294 294 293 293 293 293 292 290 289 288 288 287 286 286 286 285 284 284 284 284 283 283 281 281 281 280 278 277 276 276 275 274 273 272 270 269 268 266 265 263 261 259 258 258 257 256
275 273 274 272 273 273 270 272 277 280 282 285 286 285 283 279 273 275 278 279 276 275 278 281 283 286 288 289 289 289 289 289 289 290 292 293 293 294 294 294 294 294 293 294 294 293 292 291 290 290 289 288 288 286 285 285 284 283 283 283 282 280 279 279 278 277 276 275 274 274 274 273 274 273 271 270 268 266 265 263 262 261 260 259 258 257
282 280 278 275 277 278 276 275 276 279 285 289 288 285 283 279 276 278 279 277 277 279 282 284 285 286 288 288 288 289 289 290 291 291 292 293 293 294 294 294 294 294 294 294 293 292 292 291 291 290 289 289 289 287 286 285 284 283 282 281 281 279 278 278 277 275 274 273 272 271 271 272 272 271 270 269 268 266 265 263 261 261 260 260 259 258
289 285 280 281 283 281 278 278 278 280 288 292 287 282 284 282 279 278 278 279 282 284 284 285 286 287 288 289 289 290 291 291 292 292 293 294 294 294 294 294 294 294 294 294 293 293 292 292 291 291 290 290 289 288 287 286 284 283 281 280 279 278 277 277 276 274 272 270 269 269 269 269 270 269 268 268 267 266 265 263 260 259 258 259 259 258
289 286 284 289 291 284 282 284 284 284 292 296 290 285 287 289 286 284 283 283 285 286 287 287 287 288 289 290 291 292 292 293 293 294 295 295 295 294 295 295 294 294 295 294 294 294 294 293 292 292 291 291 291 290 288 287 285 283 281 280 279 278 276 275 274 273 271 269 267 266 266 267 267 266 265 265 266 265 264 263 260 258 256 257 257 257
290 289 287 291 292 288 288 290 287 285 291 295 293 289 289 291 290 289 289 287 287 288 289 289 289 290 291 291 292 293 294 295 295 295 295 295 295 295 295 295 295 295 295 295 295 295 294 294 293 293 293 292 292 291 289 287 286 283 282 280 279 277 276 274 273 271 271 269 268 266 265 265 264 263 262 262 263 262 262 261 260 257 255 255 255 255
289 288 286 288 288 286 286 286 283 284 289 292 293 293 292 292 292 292 291 290 290 290 290 290 291 292 292 293 294 294 295 296 295 295 296 296 296 296 296 296 296 296 296 296 296 295 295 294 294 293 293 293 293 292 291 289 287 285 283 281 279 277 276 274 272 270 269 269 268 266 264 264 262 261 260 259 259 260 259 259 259 258 256 255 255 255
288 288 287 287 285 284 284 284 282 284 288 290 291 292 292 292 292 292 291 290 290 290 291 291 292 293 293 294 295 295 295 296 295 295 296 296 296 297 297 297 296 296 296 296 296 296 296 295 295 294 294 295 294 293 292 290 288 286 284 283 280 278 277 275 272 270 269 268 267 265 264 263 262 260 258 257 257 257 257 258 258 258 257 256 256 255
290 290 289 287 287 286 286 285 284 285 287 288 289 290 291 291 291 291 291 291 291 291 292 293 294 294 295 295 295 295 295 295 296 296 297 297 298 298 298 297 297 297 296 296 296 296 296 295 295 295 296 296 295 294 292 290 288 286 285 284 282 280 278 276 274 272 270 268 266 265 263 262 261 260 258 256 255 254 255 255 256 257 257 256 256 256
289 288 290 289 287 287 286 285 286 286 285 287 291 292 292 292 292 293 293 294 294 294 294 295 295 295 295 295 296 295 295 296 297 297 298 298 298 298 298 298 298 297 297 297 297 297 296 296 296 296 296 296 295 294 293 291 289 287 286 284 282 281 279 278 276 274 272 269 266 264 262 261 260 259 258 256 254 254 253 253 255 256 256 256 256 256
288 287 289 288 287 288 289 290 291 289 287 290 296 296 295 294 294 295 296 296 296 296 296 296 296 296 296 296 296 296 296 297 297 298 298 298 299 299 299 299 298 297 298 298 298 298 297 297 297 297 296 296 295 293 292 291 290 288 287 285 283 281 280 279 278 276 273 270 267 263 261 260 259 258 257 256 255 254 253 253 253 253 254 255 255 256
294 292 292 290 290 293 295 295 295 293 290 292 296 297 296 296 296 296 297 296 296 297 297 297 297 297 297 297 297 297 297 298 298 298 298 298 299 300 300 299 299 299 299 299 299 299 299 299 299 298 298 297 295 294 292 292 290 289 288 286 284 282 281 279 277 276 274 271 268 264 261 259 258 257 257 256 255 254 254 253 252 252 252 253 254 255